Regional Weather Roundup
Issued by NWS Sioux Falls, SD

Home | Current Version | Previous Version | Text Only | Print | Product List | Glossary On
Versions: 1 2 3 4 5 6 7 8 9 10 11 12 13 14 15 16 17 18 19 20 21 22 23 24 25 26 27 28 29 30 31 32 33 34 35 36 37 38 39 40 41 42 43 44 45 46 47 48 49 50
000
ASUS43 KFSD 251810
RWRFSD

WEATHER ROUNDUP FOR SE SOUTH DAKOTA/SW MINNESOTA/NW IOWA
NATIONAL WEATHER SERVICE SIOUX FALLS SD
100 PM CDT SUN JUN 25 2017

NOTE: "FAIR" INDICATES FEW OR NO CLOUDS BELOW 12,000 FEET WITH NO
SIGNIFICANT WEATHER AND OR OBSTRUCTIONS TO VISIBILITY.


SDZ038>040-050-052>070-251900-
SOUTHEAST SOUTH DAKOTA

CITY           SKY/WX    TMP DP  RH WIND       PRES   REMARKS
BROOKINGS      MOSUNNY   65  42  43 N14G24    30.28F
CHAMBERLAIN    SUNNY     73  40  30 N7        30.29F
6HR MIN TEMP:  46; 6HR MAX TEMP:  73;

HURON          SUNNY     68  42  38 VRB7      30.29F
6HR MIN TEMP:  47; 6HR MAX TEMP:  68;

MADISON        FAIR      63  41  45 NW15G21   30.29F
MITCHELL       NOT AVBL
SIOUX FALLS    MOSUNNY   69  46  43 NW10G23   30.28F
6HR MIN TEMP:  50; 6HR MAX TEMP:  69;

WINNER         FAIR      75  34  22 NW8       30.30F
YANKTON        SUNNY     68  40  35 NW15      30.30F
$$

MNZ071-072-080-081-089-090-097-098-251900-
SOUTHWEST MINNESOTA

CITY           SKY/WX    TMP DP  RH WIND       PRES   REMARKS
FAIRMONT       SUNNY     65  41  41 NW20G30   30.22F
JACKSON        MOSUNNY   64  39  39 NW21G31   30.24F
LUVERNE        MOSUNNY   64  37  36 NW9G17    30.28S
MARSHALL       MOSUNNY   65  43  44 N23       30.24F
6HR MIN TEMP:  51; 6HR MAX TEMP:  65;

MONTEVIDEO     MOSUNNY   66  43  42 N14G25    30.24S
PIPESTONE      MOSUNNY   64  41  42 N14G23    30.27S
REDWOOD FALLS  SUNNY     66  40  38 NW15G25   30.22F
TRACY          MOSUNNY   65  44  46 N16G26    30.25S
WINDOM         SUNNY     66  41  39 W20G31    30.24S
WORTHINGTON    PTSUNNY   64  42  44 NW17G23   30.26F
$$

IAZ001>003-012>014-020>022-031-032-NEZ013-014-SDZ071-251900-
NORTHWEST IOWA

CITY           SKY/WX    TMP DP  RH WIND       PRES   REMARKS
CHEROKEE       SUNNY     66  44  43 NW17G23   30.27F
DENISON        SUNNY     68  41  37 NW14G24   30.30F
ESTHERVILLE    MOSUNNY   65  44  46 N22G30    30.24F
LE MARS        SUNNY     68  41  37 W15       30.29F
ORANGE CITY    SUNNY     66  45  45 NW13G21   30.28F
SHELDON        MOSUNNY   66  41  39 NW14G25   30.26F
SIOUX CITY     SUNNY     70  41  34 N17G23    30.28F
6HR MIN TEMP:  51; 6HR MAX TEMP:  70;

SPENCER        MOSUNNY   69  41  36 NW16G28   30.25F
6HR MIN TEMP:  51; 6HR MAX TEMP:  69;

STORM LAKE       N/A     66  41  39 NW17G29   30.27F
$$

ABBREVIATIONS USED IN REMARKS
   TC - TEMPERATURE IN CELSIUS
  WCI - WIND CHILL INDEX
   HX - HEAT INDEX
  VSB - VISIBILITY





USA.gov is the U.S. government's official web portal to all federal, state and local government web resources and services.